Location: Berlise
(49.6641°N, 4.1077°E)
Time: 02:17:56
(UTC+00:00)

Cosmos 2278 Rocket - Pass Details

Date: 27 January 2021
Orbit: 840 x 847 km, 71.0° (Epoch: 28 February)

Event Time Altitude Azimuth Distance (km) Brightness Sun altitude
Exits shadow 05:18:44 12° 215° (SW) 2,303 4.2 -19.9°
Drops below altitude 10° 05:19:20 10° 211° (SSW) 2,463 4.4 -19.8°
Sets 05:22:17 0° 196° (SSW) 3,392 5.2 -19.4°
